Theta_e
328 327 328 329 328 327 325 323 323 323 323 324 324 325 327 327 329 329 330 330 329 329 329 330 330 329 329 329 329 328 328 328 328 329 329 329 329 329 328 326 325 324 324
327 328 328 329 328 326 325 323 324 324 324 324 326 328 328 328 328 328 329 329 329 328 328 329 329 329 328 328 328 328 328 328 328 328 328 327 328 327 326 327 324 323 320
326 326 328 329 328 327 326 325 326 324 326 326 327 328 328 328 328 327 326 328 328 329 328 329 329 329 328 328 327 327 328 328 327 328 328 328 327 327 326 325 324 321 320
324 327 328 328 328 327 326 327 326 326 326 327 327 328 328 327 326 326 326 326 326 327 328 329 329 328 329 328 328 328 328 327 327 327 327 327 327 327 328 325 325 323 319
323 326 328 327 327 326 325 325 326 327 326 326 328 328 328 327 326 326 326 327 328 327 328 330 329 328 329 328 327 328 328 327 327 328 328 328 327 327 327 325 323 323 321
322 327 328 327 327 324 325 326 325 326 327 326 327 327 328 327 327 326 326 326 328 327 328 327 329 328 328 328 328 328 327 327 327 327 327 327 327 328 326 323 320 321 320
322 326 325 326 327 324 326 326 326 327 327 326 326 327 329 329 327 326 325 327 328 329 329 329 329 329 328 327 326 327 327 325 325 326 327 327 328 327 325 320 318 317 321
321 325 325 325 326 326 326 327 326 324 327 326 325 328 328 329 329 326 325 327 328 328 329 329 328 328 327 327 327 327 328 328 328 328 326 323 322 321 320 319 321 322 322
321 323 323 322 326 326 325 326 324 323 325 326 326 327 328 327 327 327 326 325 327 327 328 327 326 326 327 327 328 328 325 326 328 327 326 324 323 323 323 323 323 324 325
321 321 321 320 324 324 325 326 324 322 324 326 326 327 327 328 328 329 327 327 328 327 328 328 327 326 327 328 328 323 324 326 327 327 328 327 327 328 329 328 327 326 315
321 320 320 321 326 325 324 326 324 321 321 322 324 324 326 328 328 328 328 328 327 327 327 327 327 327 327 327 326 321 320 318 316 315 315 313 313 313 315 315 314 314 316
320 320 319 320 326 326 324 326 322 320 319 319 320 319 321 325 326 328 328 327 328 327 326 324 322 323 324 324 321 319 318 316 315 318 319 319 319 319 318 318 318 317 315
320 320 320 320 320 327 325 324 323 321 320 319 319 319 319 321 324 325 324 324 323 322 319 319 320 321 320 319 319 318 319 318 317 318 320 322 321 318 315 313 311 310 307
318 319 320 319 318 323 328 325 325 326 322 320 319 318 319 319 318 320 322 322 321 319 318 319 318 317 317 318 320 320 319 318 317 318 320 318 315 312 311 310 307 305 306
317 318 319 319 318 321 326 327 325 326 325 326 325 322 319 317 318 320 319 319 321 320 319 319 320 318 318 317 318 318 315 313 316 320 320 317 313 309 308 305 305 305 304
316 316 316 318 320 322 325 326 326 326 326 325 322 325 327 324 322 318 315 316 316 318 318 314 314 317 316 316 315 310 307 309 316 320 317 314 309 308 306 305 304 305 302
318 317 316 318 321 323 324 325 325 326 327 328 326 326 326 325 323 321 319 313 311 312 316 315 313 313 313 313 315 313 309 310 313 317 314 310 308 306 305 304 303 302 300
319 319 318 318 322 323 324 324 325 324 324 325 325 325 324 324 323 322 320 319 308 308 311 313 313 311 310 307 310 311 309 312 314 313 310 307 306 304 303 303 302 301 299
320 319 318 319 321 322 323 324 324 323 323 324 322 322 321 322 322 321 320 320 315 308 308 312 314 313 310 307 305 307 307 313 314 311 307 305 304 303 303 302 301 300 298
321 321 319 319 321 323 323 323 322 322 321 322 322 322 322 319 319 319 319 318 316 315 307 309 312 314 313 311 306 304 305 313 311 307 305 304 303 303 302 300 298 297 296
322 321 320 319 321 321 322 322 322 322 321 320 322 321 322 322 318 317 316 318 318 317 315 308 309 313 313 312 313 312 311 311 309 306 304 303 302 302 300 298 297 296 296
323 322 319 319 320 321 321 321 322 322 322 321 321 321 321 321 321 320 318 318 318 319 319 317 310 309 312 315 316 315 313 310 307 306 303 302 301 299 298 297 295 295 295
324 323 321 320 319 320 320 320 321 321 321 321 321 320 320 321 319 319 320 318 317 316 318 317 315 311 309 311 314 314 314 312 308 303 302 301 299 298 298 296 295 294 290
325 324 322 322 321 320 319 319 319 320 319 319 320 320 320 319 320 320 319 318 316 316 315 315 315 312 309 309 311 311 311 308 306 303 301 299 299 298 296 295 293 290 288
326 325 323 322 321 321 321 320 320 319 319 319 319 320 320 321 319 318 319 317 315 314 313 313 313 312 310 309 310 309 308 308 307 302 300 300 298 297 296 294 291 288 287
328 327 326 324 323 322 321 321 321 321 320 320 320 320 320 319 319 320 319 317 314 312 312 312 311 311 309 308 308 305 303 302 301 300 298 299 300 297 296 292 289 287 286
Wind_Speed
12 10 8 8 5 5 4 7 7 8 9 8 6 6 7 8 9 11 10 9 13 14 14 18 21 23 24 26 27 28 27 22 13 17 21 23 25 23 17 11 8 5 3
12 11 7 9 6 6 5 7 6 7 9 8 7 7 9 11 12 12 14 13 12 14 14 19 24 26 27 27 26 25 25 24 25 17 19 15 27 20 15 10 7 5 5
12 11 10 9 7 5 5 8 7 9 10 10 10 10 12 13 13 10 11 15 13 12 15 20 26 29 26 28 29 28 25 26 26 22 14 16 18 17 14 11 8 6 5
14 12 13 8 7 6 6 10 10 11 14 12 9 11 14 13 12 11 12 13 13 11 12 16 23 29 29 29 31 28 25 25 26 22 17 15 12 14 10 10 8 5 2
16 14 13 9 8 9 10 12 11 12 13 12 14 11 12 13 13 13 12 11 14 13 13 14 17 23 27 25 26 25 29 24 24 20 14 11 10 15 14 10 10 6 4
19 17 14 11 12 12 12 13 14 12 9 12 13 10 11 11 12 12 11 10 11 14 16 14 18 23 23 24 24 26 29 28 24 20 13 11 12 14 14 10 10 7 1
22 19 16 14 14 16 16 16 14 11 12 14 13 9 10 11 11 13 11 11 13 15 17 17 20 23 24 23 20 17 16 17 19 19 18 15 14 16 15 12 10 8 4
25 22 18 14 13 21 18 17 12 11 14 15 12 10 12 14 13 15 13 11 16 15 21 22 22 22 20 21 16 12 9 7 14 15 11 8 8 11 11 10 9 7 5
28 25 22 15 17 20 21 18 15 13 14 14 13 13 15 17 16 14 14 14 14 15 18 18 22 22 21 19 13 9 8 9 11 12 11 8 9 11 10 11 10 9 4
30 28 26 19 20 18 21 20 17 14 15 15 13 11 12 14 15 15 15 15 16 17 16 18 21 19 19 14 10 9 12 11 9 9 12 15 8 10 9 6 9 9 7
34 30 28 25 23 20 18 22 20 17 17 15 14 12 13 14 16 16 18 18 20 19 18 17 19 20 17 14 14 14 11 12 11 12 12 11 11 12 11 10 9 7 11
35 33 30 29 25 24 23 25 23 21 20 17 15 13 11 15 16 17 17 17 18 19 19 17 17 18 17 17 17 12 7 9 11 10 10 11 12 12 13 13 13 12 13
35 35 33 33 29 27 28 27 25 24 22 20 18 17 16 15 15 17 18 19 19 17 17 17 16 16 15 14 13 11 12 11 11 12 13 14 16 18 20 19 17 17 19
35 35 36 34 33 30 30 30 28 26 27 24 22 21 20 20 19 19 19 18 19 19 18 18 18 19 17 15 15 14 12 11 11 11 16 21 21 21 22 21 23 23 25
35 36 34 35 36 33 32 33 33 30 28 29 28 26 24 22 26 24 22 20 22 21 19 19 20 20 19 18 17 17 15 13 13 17 23 23 22 22 24 25 25 19 24
29 31 33 30 32 31 33 30 31 32 31 27 27 29 26 26 23 25 27 25 22 22 21 21 24 26 26 25 22 20 16 15 17 23 25 26 26 25 25 20 20 23 21
32 29 31 31 29 28 27 27 25 28 30 29 26 25 26 24 28 26 25 26 27 24 24 25 27 29 29 29 27 23 21 20 23 28 27 26 27 26 26 26 24 24 22
33 35 35 30 30 30 30 29 27 26 25 27 28 26 25 25 27 26 26 26 26 29 29 27 28 31 31 30 30 27 22 21 28 31 30 30 30 30 29 25 24 22 17
33 35 34 32 32 32 30 28 30 28 28 30 27 26 28 26 26 26 27 31 32 34 34 31 31 33 34 33 31 29 26 28 33 35 34 33 30 31 27 22 21 19 16
34 36 37 31 29 30 28 27 25 27 29 30 29 31 27 28 27 27 30 33 34 36 38 39 36 35 36 34 31 31 30 32 36 37 36 34 34 31 29 27 21 15 13
31 35 37 32 31 32 29 27 28 27 27 30 33 33 32 32 31 32 28 33 37 39 39 41 42 38 35 32 31 32 32 35 39 39 39 37 35 31 31 22 14 15 16
31 33 36 32 30 29 29 31 32 32 33 32 35 34 34 34 34 34 34 35 36 41 42 42 40 42 39 36 34 31 30 34 41 42 40 38 35 35 30 23 21 18 18
31 32 31 27 29 30 31 31 32 32 31 33 34 33 34 36 38 37 39 40 38 37 39 41 40 39 38 36 36 34 35 39 43 39 41 39 38 31 23 25 24 21 16
34 33 33 30 28 29 30 30 31 33 34 35 36 36 36 35 37 40 42 42 40 38 37 39 41 40 38 35 36 37 37 40 42 39 38 37 26 23 22 21 19 17 17
31 32 31 30 30 32 31 31 34 36 36 35 37 39 40 38 37 36 35 38 38 37 36 35 36 37 35 36 36 36 38 45 47 47 41 33 30 22 19 20 20 19 17
33 33 32 30 31 32 31 32 34 34 36 39 40 40 38 36 37 36 34 34 33 32 31 31 30 31 31 32 35 35 40 43 44 39 34 30 28 23 23 24 23 20 17
Wind_Direction
189 197 199 175 173 185 155 152 149 160 164 173 177 170 169 161 153 143 129 119 128 138 143 140 141 155 156 156 156 152 148 137 118 105 126 160 157 150 145 138 152 174 185
198 198 188 167 167 189 175 165 166 150 154 166 160 156 161 157 153 140 127 118 129 132 142 146 142 150 146 150 149 141 140 146 129 123 129 135 129 137 134 150 163 184 192
177 178 165 156 170 180 168 165 167 153 146 152 151 153 159 157 151 146 135 129 127 130 140 140 144 148 134 138 145 143 144 140 144 135 134 136 145 154 164 165 175 183 187
175 169 159 161 166 148 136 156 151 149 140 140 141 149 161 162 156 144 138 131 126 130 143 146 149 150 147 149 144 148 152 139 143 146 156 167 161 178 186 193 199 205 208
179 173 169 163 159 133 126 145 144 142 141 133 140 138 157 167 166 155 139 129 130 140 147 148 156 152 145 149 151 149 149 141 149 155 150 165 169 168 185 193 206 213 246
180 176 175 176 156 140 134 148 150 147 152 151 142 144 158 175 180 169 163 148 142 143 150 150 156 148 150 147 143 150 154 156 164 162 169 189 189 187 194 188 194 199 235
182 179 177 186 165 158 146 150 155 157 158 161 158 152 166 170 170 172 152 137 148 145 147 147 145 150 148 141 144 149 159 172 178 190 194 198 200 200 195 194 195 195 189
185 184 184 189 184 170 165 161 160 150 149 160 162 153 143 149 161 153 144 125 136 140 141 141 141 144 151 158 163 171 196 212 205 209 213 200 179 190 198 205 203 195 204
188 189 187 187 177 177 178 175 166 157 152 155 160 153 147 152 162 163 154 145 142 149 157 156 155 158 155 165 176 218 237 200 199 215 225 216 242 228 214 216 211 199 166
193 193 191 185 181 179 190 184 172 167 159 153 146 151 151 153 164 168 171 164 160 159 162 174 181 175 171 183 210 181 148 144 152 151 170 188 149 129 134 166 187 180 145
197 194 191 190 184 179 181 177 176 172 167 165 157 152 152 160 164 171 171 166 166 170 176 181 188 199 205 206 202 178 151 156 153 152 153 145 131 130 135 136 132 132 114
195 195 195 191 189 184 179 178 179 175 172 174 172 168 163 166 168 180 190 192 185 181 185 186 186 192 196 193 195 207 194 177 161 153 153 157 157 140 128 117 117 120 112
192 195 198 195 194 193 185 184 184 183 179 177 181 183 180 175 181 187 190 189 187 190 185 185 183 182 185 194 201 196 189 185 171 160 146 139 142 141 134 129 126 125 118
189 195 200 198 199 200 196 194 190 189 191 189 189 193 196 193 187 181 189 191 196 195 192 193 193 190 191 198 193 185 185 186 190 173 151 145 142 142 143 142 133 126 119
189 196 201 201 202 203 203 201 203 206 203 198 202 205 202 203 206 202 198 195 199 201 199 199 197 195 193 192 186 185 188 191 187 172 164 158 153 151 149 147 142 138 128
186 190 197 193 196 200 203 206 209 214 213 217 219 210 215 220 213 213 215 214 212 211 203 201 202 203 202 198 194 190 191 190 188 180 174 167 160 156 149 152 149 142 131
190 191 195 192 188 191 198 201 204 217 221 220 224 222 224 226 222 221 217 216 218 217 216 214 212 209 210 207 204 203 202 204 199 189 179 172 168 162 156 153 151 144 136
195 194 195 190 189 192 196 202 205 209 213 219 223 224 227 229 229 224 221 218 212 218 222 222 219 217 218 216 211 209 209 203 194 187 181 176 169 162 158 156 157 151 147
192 193 194 191 193 195 198 199 203 208 210 216 217 221 223 226 228 229 229 221 218 221 223 227 228 226 223 222 218 214 213 201 192 187 181 174 170 167 162 158 157 156 148
195 196 194 191 189 192 194 195 198 207 210 215 217 220 218 223 224 225 225 221 224 227 226 228 230 231 230 227 221 218 213 205 193 187 181 176 173 168 161 152 151 154 140
191 193 195 188 190 193 194 195 200 204 211 217 223 224 223 221 225 228 229 225 226 230 234 234 231 232 231 227 220 214 209 202 194 187 181 177 171 163 152 150 161 161 153
188 189 189 192 192 192 195 199 201 207 215 218 226 229 228 228 229 233 236 239 237 234 235 237 239 236 233 229 224 217 210 202 192 188 184 178 170 159 157 159 167 168 160
185 187 186 192 194 197 198 201 205 210 216 221 227 231 227 229 232 234 237 241 241 242 237 235 238 239 239 233 229 226 215 203 192 189 176 172 165 160 161 164 164 165 167
189 186 187 192 193 196 200 203 207 213 216 221 228 233 238 235 235 240 242 244 245 244 243 239 238 238 235 227 221 215 204 196 185 181 179 164 159 156 159 170 170 169 166
187 188 190 190 195 199 205 208 212 216 218 221 227 233 235 239 245 245 249 250 250 250 246 243 240 237 231 220 208 200 197 191 180 175 171 163 154 163 183 186 179 179 161
199 200 198 197 201 204 207 212 219 219 222 229 234 238 241 241 242 246 249 249 249 246 241 237 235 228 217 206 199 187 175 175 162 160 160 158 160 177 187 192 187 178 160